Tracking 30703 objects as of 14-Jun-2025
HD Live streaming from Space Station
objects crossing your sky now

COSMOS 2201

Track COSMOS 2201 now!
10-day predictions
COSMOS 2201 is classified as:


NORAD ID: 22038
Int'l Code: 1992-042E
Perigee: 1,414.8 km
Apogee: 1,430.8 km
Inclination: 82.6 °
Period: 114.1 minutes
Semi major axis: 7793 km
RCS: 1.1289 m2 (large)
Launch date: July 13, 1992
Source: Commonwealth of Independent States (former USSR) (CIS)
Launch site: PLESETSK MISSILE AND SPACE COMPLEX (PKMTR)
Your satellite tracking list
Your tracking list is empty




NASA's NSSDC Master Catalog

Two Line Element Set (TLE):
1 22038U 92042E   25164.69322756  .00000008  00000-0 -16912-4 0  9992
2 22038  82.5893 134.9934 0010260  74.1883  99.4760 12.61773390515820
Source of the keplerian elements: AFSPC